User: anonymous   Login
Location: Ash Observatory
(39.7321°N, 75.2004°W)
Time: 18:23:12
(UTC-04:00)
Language:

Hubble Space Telescope - Orbit

View from above orbital plane
View from above orbital plane
View from above satellite
View from above satellite

Ground track
Ground track

The orbit data is extracted from the following two-line orbital elements,

1 20580U 90037B   19170.55335477 +.00000295 +00000-0 +69566-5 0  9994
2 20580 028.4681 206.2409 0002891 130.2537 006.5175 15.09236740400937
Epoch (UTC): 19 June 2019 13:16:49
Eccentricity: 0.0002891
inclination: 28.4681°
perigee height: 536 km
apogee height: 540 km
right ascension of ascending node: 206.2409°
argument of perigee: 130.2537°
revolutions per day: 15.09236740
mean anomaly at epoch: 6.5175°
orbit number at epoch: 40093

The dashed part of the orbit path shows where the satellite is in the earth's shadow,  

DLR